Regional Weather Roundup
Issued by NWS

Home | Current Version | Previous Version | Graphics & Text | Print | Product List | Glossary On
Versions: 1 2 3 4 5 6 7 8 9 10 11 12 13 14 15 16 17 18 19 20 21 22 23 24 25 26 27 28 29 30 31 32 33 34 35 36 37 38 39 40 41 42 43 44 45 46 47 48 49 50
000
ASUS43 KMKX 280720
RWRWI

WISCONSIN REGIONAL WEATHER ROUNDUP
NATIONAL WEATHER SERVICE MILWAUKEE/SULLIVAN WI
200 AM CDT SAT MAR 28 2015

NOTE: "FAIR" INDICATES FEW OR NO CLOUDS BELOW 12,000 FEET WITH NO
SIGNIFICANT WEATHER AND/OR OBSTRUCTIONS TO VISIBILITY.

WIZ001-002-006>008-014>016-023>028-280800-
NORTHWEST WISCONSIN

CITY           SKY/WX    TMP DP  RH WIND       PRES   REMARKS
SUPERIOR ARPT  CLEAR     16  15  94 CALM      30.21S
ASHLAND        CLEAR     11   8  88 CALM      30.21S
HAYWARD        PTCLDY    19   8  62 CALM      30.17S
SIREN          CLOUDY    18   9  68 CALM      30.19R
CUMBERLAND     CLEAR     23  18  80 CALM      30.17R
RICE LAKE      CLEAR     21  16  79 CALM      30.19S
CHETEK         CLEAR     17  13  83 CALM      30.19R
LADYSMITH      PTCLDY    21  15  77 CALM      30.19S
EAU CLAIRE     CLEAR     22  11  62 CALM      30.19S
MENOMONIE      CLEAR     23  17  79 CALM      30.20S
NEW RICHMOND   PTCLDY    22  15  73 CALM      30.19R
OSCEOLA        PTCLDY    23  15  72 E3        30.21S
$$

WIZ003>005-009-010-017-018-280800-
NORTH CENTRAL WISCONSIN

CITY           SKY/WX    TMP DP  RH WIND       PRES   REMARKS
MANITOWISH WTR CLEAR      9   6  85 CALM      30.16R
ARBOR VITAE    CLEAR     11   6  77 CALM      30.16R
WOODRUFF       CLEAR     11   6  77 CALM      30.16R
RHINELANDER    CLEAR      8   0  69 CALM      30.17R
EAGLE RIVER    CLEAR      5   0  79 CALM      30.16R
LAND O LAKES   CLEAR     -2  -5  85 CALM      30.17S
PHILLIPS       CLEAR     15   7  72 CALM      30.16S
TOMAHAWK       CLEAR      8   4  86 CALM      30.17S
MEDFORD        CLEAR     14  10  85 CALM      30.17R
MERRILL        CLEAR     11   6  81 CALM      30.18S
$$

WIZ029-030-035-036-043>047-280800-
CENTRAL WISCONSIN

CITY           SKY/WX    TMP DP  RH WIND       PRES   REMARKS
WAUSAU         CLEAR     17   9  70 E7        30.18R WCI   8
MOSINEE        CLEAR     18  10  73 E6        30.20R WCI   9
MARSHFIELD     CLEAR     22  11  62 CALM      30.18R
STEVENS POINT  CLEAR     13   8  79 CALM      30.21R
WAUPACA        CLEAR     19  12  74 CALM      30.23S
WAUTOMA        CLEAR     12   8  84 CALM      30.23R
WISC RAPIDS    CLEAR     14   9  80 CALM      30.21R
CAMP DOUGLAS   CLEAR     13  13  99 E2        30.20R
$$

WIZ011>013-019>022-031-037>040-048>050-280800-
NORTHEAST WISCONSIN

CITY           SKY/WX    TMP DP  RH WIND       PRES   REMARKS
ANTIGO         CLEAR     15   7  71 SE6       30.18S WCI   6
SHAWANO        CLEAR     17  12  81 CALM      30.25R
OCONTO         CLEAR     13   8  79 CALM      30.26R
STURGEON BAY   CLEAR     16   3  57 N3        30.26R
GREEN BAY      CLEAR     21  15  78 NW3       30.25R
MANITOWOC      CLEAR     16  13  88 CALM      30.25R
APPLETON       CLEAR     21  12  68 CALM      30.23S
CLINTONVILLE   CLEAR     18  10  73 CALM      30.24R
OSHKOSH        CLEAR     18  11  74 CALM      30.23R
$$

WIZ032>034-041-042-053>061-280800-
SOUTHWEST WISCONSIN

CITY           SKY/WX    TMP DP  RH WIND       PRES   REMARKS
LA CROSSE      CLEAR     22  13  68 CALM      30.21S
SPARTA         CLEAR     13  10  85 CALM      30.22S
VIROQUA        CLEAR     24  11  59 CALM      30.17S
BOSCOBEL       CLEAR     17  12  80 CALM      30.23R
PRAIRIE DU CHI FAIR      18  11  75 CALM      30.22R
PLATTEVILLE    CLEAR     24  13  64 NE3       30.20R
$$

WIZ056-057-062-063-064-067-068-280800-
SOUTH CENTRAL WISCONSIN

CITY           SKY/WX    TMP DP  RH WIND       PRES   REMARKS
REEDSBURG      CLEAR     19  14  82 CALM      30.21S
BARABOO/DELLS  CLEAR     21   8  57 S3        30.20S
LONE ROCK      CLEAR     18  11  74 E6        30.22S WCI  10
MINERAL POINT  CLEAR     21   9  58 SE3       30.19R
MADISON        CLEAR     22  12  65 S5        30.21S WCI  16
MIDDLETON      CLEAR     23  12  61 S5        30.22S WCI  17
WATERTOWN      CLEAR     15  13  90 CALM      30.23R
MONROE         CLEAR     19  16  86 SE6       30.20S WCI  11
JANESVILLE     CLEAR     21  14  73 CALM      30.23R
$$

WIZ051-052-058>065-066-070>072-280800-
SOUTHEAST WISCONSIN

CITY           SKY/WX    TMP DP  RH WIND       PRES   REMARKS
MILWAUKEE      PTCLDY    22  11  62 W5        30.23S WCI  16
WAUKESHA       CLEAR     14  10  85 CALM      30.23S
MILWAUKEE/TIMM CLEAR     18  12  79 CALM      30.24R
RACINE         PTCLDY    20  12  71 W5        30.24S WCI  13
BURLINGTON     CLEAR     13  10  90 CALM      30.23R
KENOSHA        CLEAR     19  13  77 N5        30.23R WCI  12
FOND DU LAC    CLEAR     16  10  77 CALM      30.23R
SHEBOYGAN      CLEAR     15  11  83 W3        30.23S
WEST BEND      CLEAR     16  12  86 CALM      30.22S
JUNEAU         CLEAR     17  12  80 CALM      30.23S
$$

LSZ147-162-280800-
LAKE SUPERIOR

STATION/POSITION TIME  TEMP    WIND        PRES    WAVE
                       AIR SEA DIR/SP/G            HT/PER
                 (UTC) (F)     (DEG/KT/KT) (MB)    (FT/S)
DEVILS ISLAND    0700   25      CALM  /  1 1024.4S
PORT WING        0640   15     160/  4/  5 1023.0S
SAXON HARBOR     0640   14        CALM     1023.0S
$$

LMZ867-665-643>646-280800-
LAKE MICHIGAN

STATION/POSITION TIME  TEMP    WIND        PRES    WAVE
                       AIR SEA DIR/SP/G            HT/PER
                 (UTC) (F)     (DEG/KT/KT) (MB)    (FT/S)
NORTHPORT PIER   0619   19     340/  5/  9 1024.4S
SISTER BAY       0502   15        CALM       N/A
KEWAUNEE LAKESHO 0600   20     340/  5/  7 1023.0R
SHEBOYGAN LAKESH 0700   25      30/  5/  6 1025.3R
PORT WASHINGTON  0640   22     330/  3/  5 1024.4S
MILWAUKEE LAKESH 0700   24     300/  5/  6   N/A
KENOSHA   LAKESH 0700   23     320/  5/  7 1023.7R
$$

TC  - TEMPERATURE IN CELSIUS
VSB - VISIBILITY IN STATUTE MILES
WCI - WIND CHILL INDEX
HX  - HEAT INDEX




USA.gov is the U.S. government's official web portal to all federal, state and local government web resources and services.